SCP
0 0 0 0 0 0 0 0 0 0 0 0 0 0 0 0 0 0 0 0 0 0 0 0 0 0 0 0 0 0 0 0 0 0 0 0 0 0 0 0 0 0 0 0 0 0 0 0 0 0 0 0 0 0
0 0 0 0 0 0 0 0 0 0 0 0 0 0 0 0 0 0 0 0 0 0 0 0 0 0 0 0 0 0 0 0 0 0 0 0 0 0 0 0 0 0 0 0 0 0 0 0 0 0 0 0 0 0
0 0 0 0 0 0 0 0 0 0 0 0 0 0 0 0 0 0 0 0 0 0 0 0 0 0 0 0 0 0 0 0 0 0 0 0 0 0 0 0 0 0 0 0 0 0 0 0 0 0 0 0 0 0
0 0 0 0 0 0 0 0 0 0 0 0 0 0 0 0 0 0 0 0 0 0 0 0 0 0 0 0 0 0 0 0 0 0 0 0 0 0 0 0 0 0 0 0 0 0 0 0 0 0 0 0 0 0
0 0 0 0 0 0 -0 0 0 0 0 0 0 0 0 0 0 0 0 0 0 0 0 0 0 0 0 0 0 0 0 0 0 0 0 0 0 0 0 0 0 0 0 0 0 0 0 0 0 0 0 0 0 0
0 0 0 0 0 0 0 0 0 0 0 0 0 0 0 0 0 0 0 0 0 0 0 0 0 0 0 0 0 0 0 0 0 0 0 0 0 0 0 0 0 0 0 0 0 0 0 0 0 0 0 0 0 0
0 0 0 0 0 0 0 0 0 0 0 0 0 0 0 0 0 0 0 0 0 0 0 0 0 0 0 0 0 0 0 0 0 0 0 0 0 0 0 0 0 0 0 0 0 0 0 0 0 0 0 0 0 0
0 0 0 0 0 0 0 0 0 0 0 0 0 0 0 0 0 0 0 0 0 0 0 0 0 0 0 0 0 0 0 0 0 0 0 0 0 0 0 0 0 0 0 0 0 0 0 0 0 0 0 0 0 0
0 0 0 0 0 0 0 0 0 0 0 0 0 0 0 0 0 0 0 0 0 0 0 0 0 0 0 0 0 0 0 0 0 0 0 0 0 0 0 0 0 0 0 0 0 0 0 0 0 0 0 0 0 0
0 0 0 0 0 0 0 0 0 0 0 0 0 0 0 0 0 0 0 0 0 0 0 0 0 0 0 0 0 0 0 0 0 0 0 0 0 0 0 0 0 0 0 0 0 0 0 0 0 0 0 0 0 0
0 0 0 0 0 0 0 0 0 0 0 0 0 0 0 0 0 0 0 0 0 0 0 0 0 0 0 0 0 0 0 0 0 0 0 0 0 0 0 0 0 0 0 0 0 0 0 0 0 0 0 0 0 0
0 0 0 0 0 0 0 0 0 0 0 0 0 0 0 0 0 0 0 0 0 0 0 0 0 0 0 0 0 0 0 0 0 0 0 0 0 0 0 0 0 0 0 0 0 0 0 0 0 0 0 0 0 0
0 0 0 0 0 0 0 0 0 0 0 0 0 0 0 0 0 0 0 0 0 0 0 0 0 0 0 0 0 0 0 0 0 0 0 0 0 0 0 0 0 0 0 0 0 0 0 0 0 0 0 0 0 0
0 0 0 0 0 0 0 0 0 0 0 0 0 0 0 0 0 0 0 0 0 0 0 0 0 0 0 0 0 0 0 0 0 0 0 0 0 0 0 0 0 0 0 0 0 0 0 0 0 0 0 0 0 -0
0 0 0 0 0 0 0 0 0 0 0 0 0 0 0 0 0 0 0 0 0 0 0 0 0 0 0 0 0 0 0 0 0 0 0 0 0 0 0 0 0 0 0 0 0 0 0 0 0 0 0 0 0 0
0 0 0 0 0 0 0 0 0 0 0 0 0 0 0 0 0 0 0 -0 0 0 0 0 0 0 0 0 0 0 0 0 0 0 0 0 0 0 0 0 0 0 0 0 0 0 0 0 0 0 0 0 0 -0
0 0 0 0 0 0 0 0 0 0 0 0 0 0 0 0 0 0 0 0 0 0 0 0 0 0 0 0 0 0 0 0 0 0 0 0 0 0 0 0 0 0 0 0 0 0 0 0 0 0 0 -0 -0 0
0 0 0 0 0 0 0 0 0 0 0 0 0 0 0 0 0 0 0 0 0 0 0 0 0 0 0 0 0 0 0 0 0 0 0 0 0 0 0 0 0 0 0 0 0 0 0 0 0 0 0 -0 0 -0
0 0 0 0 0 0 0 0 0 0 0 0 0 0 0 0 0 0 0 0 0 0 0 0 0 0 0 0 0 0 0 0 0 0 0 0 0 0 0 0 0 0 0 0 0 0 0 0 0 0 0 -0 -0 -0
0 0 0 0 0 0 0 0 0 0 0 0 0 0 0 0 0 0 0 0 0 0 0 0 0 0 0 0 0 0 0 0 0 0 0 0 0 0 0 0 0 0 0 0 0 0 0 0 0 0 -0 -0 -0 -0
0 0 0 0 0 0 0 0 0 0 0 0 0 0 0 0 0 0 0 0 0 0 0 0 0 0 0 0 0 0 0 0 0 0 0 0 0 0 0 0 0 0 0 0 0 0 0 0 0 0 -0 -0 -0 -0
0 0 0 0 0 0 0 0 0 0 0 0 0 0 0 0 0 0 0 0 0 0 0 0 0 0 0 0 0 0 0 0 0 0 0 0 0 0 0 0 0 0 0 0 0 0 0 0 0 -0 -0 -0 -0 -0
0 0 0 0 0 0 0 0 0 0 0 0 0 0 0 0 0 0 0 0 0 0 0 0 0 0 0 0 0 0 0 0 0 0 0 0 0 0 0 0 0 0 -0 -0 0 0 0 0 -0 0 -0 -0 -0 0
0 0 0 0 0 0 0 0 0 0 0 0 0 0 0 0 0 0 0 0 0 0 0 0 0 0 0 0 0 0 0 0 0 0 0 0 0 0 0 0 0 0 0 0 0 0 0 -0 0 0 -0 -0 0 0
0 0 0 0 0 0 0 0 0 0 0 0 0 0 0 0 0 0 0 0 0 0 0 0 0 0 0 0 0 0 0 0 0 0 0 0 0 0 0 0 0 0 0 0 0 0 0 -0 -0 0 -0 -0 0 0
0 0 0 0 0 0 0 0 0 0 0 0 0 0 0 0 0 0 0 0 0 0 0 0 0 0 0 0 0 0 0 0 0 0 0 0 0 0 0 -0 -0 -0 0 -0 -0 -0 -0 0 0 -0 -0 0 0 0
0 0 0 0 0 0 0 0 0 0 0 0 0 0 0 0 0 0 0 0 0 0 0 0 0 0 0 0 0 0 0 0 0 0 0 0 -0 0 -0 0 0 -0 -0 0 -0 -0 -0 -0 -0 -0 -0 0 0 0
0 0 0 0 0 0 0 0 0 0 0 0 0 0 0 0 0 0 0 0 0 0 0 0 0 0 0 0 0 0 0 0 0 0 0 0 -0 0 0 0 0 0 0 0 -0 0 0 -0 0 -0 -0 -0 0 0
0 0 0 0 0 0 0 0 0 0 0 0 0 0 0 0 0 0 0 0 0 0 0 0 0 0 0 0 0 0 0 0 0 0 -0 -0 -0 0 0 0 0 0 0 0 0 0 0 0 0 0 0 0 0 0
0 0 0 0 0 0 0 0 0 0 0 0 0 0 0 0 0 0 0 0 0 0 0 0 0 0 0 0 0 0 0 0 0 -0 -0 -0 -0 -0 0 0 0 0 0 0 0 0 -0 0 0 0 0 0 0 0
0 0 0 0 0 0 0 0 0 0 0 0 0 0 0 0 0 0 0 0 0 0 0 -0 0 0 0 0 0 0 0 0 -0 -0 -0 -0 -0 -0 0 0 0 0 0 0 0 0 0 0 0 0 0 0 0 0
0 0 0 0 0 0 0 0 0 -0 -0 -0 0 0 0 0 0 0 0 0 0 -0 -0 -0 0 0 0 0 0 0 0 0 0 -0 0 0 0 0 0 0 0 0 0 0 0 0 0 0 0 0 0 0 0 0
0 0 0 0 0 0 0 0 0 0 0 0 0 0 0 0 0 0 -0 0 0 0 0 0 0 0 0 0 0 0 0 0 0 0 0 0 0 0 0 0 0 0 0 0 0 0 0 0 0 0 0 0 0 0
Wind_Speed_500mb
63 57 58 52 54 57 52 48 46 41 37 32 25 19 15 11 8 6 3 6 10 8 20 10 5 5 1 1 6 1 5 5 7 5 4 4 2 3 5 4 6 5 4 4 2 5 10 21 13 5 18 47 47 54
53 60 51 55 52 49 53 51 49 43 41 36 28 21 17 12 9 7 7 11 14 12 11 16 20 17 15 14 4 2 4 1 4 7 2 3 3 3 7 3 8 3 10 8 14 11 7 22 18 29 45 48 49 44
51 56 59 55 53 50 58 56 51 48 45 40 34 27 20 16 12 9 7 9 14 11 22 12 17 18 19 25 19 5 5 9 8 7 10 4 3 7 3 8 6 7 6 4 6 4 12 41 31 45 47 31 44 49
57 55 56 64 57 48 50 57 62 58 51 47 39 33 24 20 18 13 10 11 12 6 5 4 5 4 11 9 14 14 17 11 13 7 4 4 4 12 7 9 10 11 7 6 8 16 26 23 40 46 25 38 44 44
54 59 55 53 61 59 56 47 52 54 51 49 43 36 27 22 19 14 9 9 8 2 5 15 16 20 18 12 9 9 19 17 8 6 4 6 9 1 6 2 5 13 11 8 11 21 20 37 47 32 29 44 43 49
50 53 59 52 55 47 53 52 50 50 52 48 44 37 33 23 21 11 9 12 12 8 6 6 5 12 30 23 18 18 13 12 9 8 8 9 19 2 3 5 10 18 21 20 12 19 33 43 39 16 36 41 46 59
48 49 54 60 50 48 50 49 55 49 50 46 47 40 34 29 27 16 6 10 16 3 3 11 13 10 35 22 17 22 18 12 12 7 9 9 11 6 4 8 25 14 14 15 19 30 42 21 19 26 42 45 62 60
47 45 47 52 66 49 44 43 39 51 53 47 44 41 38 36 29 26 24 12 11 9 5 2 10 8 34 15 11 23 16 22 14 12 8 12 5 12 7 17 22 20 22 22 21 26 19 37 22 37 42 57 61 65
44 44 44 44 55 49 44 41 45 43 54 58 53 47 41 35 25 24 19 13 18 12 5 7 5 7 28 20 15 18 19 6 13 21 13 14 5 9 16 22 30 30 21 16 18 23 30 25 30 34 42 54 57 64
35 39 41 42 42 51 46 39 51 44 44 53 57 27 17 27 25 24 16 13 15 15 14 12 10 6 21 21 13 9 13 7 3 11 6 7 9 48 44 35 30 27 15 13 20 20 24 25 27 37 43 47 51 62
35 37 39 36 35 42 49 34 40 34 45 56 22 15 34 43 26 15 10 10 14 8 17 18 40 15 20 8 10 10 6 3 1 9 8 5 7 13 21 16 15 14 5 9 11 20 31 32 37 41 44 48 58 60
37 39 38 35 37 33 48 31 48 46 46 44 29 45 44 15 8 9 7 9 10 10 17 17 24 38 12 10 6 5 5 3 9 5 3 6 7 9 19 15 19 11 3 8 16 25 32 36 37 36 42 50 58 60
33 34 39 39 36 34 46 34 30 52 46 46 18 13 14 11 7 16 18 9 8 14 23 28 13 26 14 9 6 5 5 8 5 3 7 8 14 21 25 22 9 4 3 13 24 28 32 37 37 41 39 51 56 59
30 30 38 44 35 33 33 32 68 53 55 10 19 13 14 10 13 12 13 12 19 18 37 44 31 12 9 7 7 7 8 6 1 1 10 5 25 25 18 13 6 2 11 27 31 34 34 37 41 35 40 47 54 55
29 29 33 46 40 35 34 41 63 62 11 9 10 9 12 12 14 14 34 15 12 9 41 33 10 8 4 6 6 5 6 9 11 9 7 23 23 23 21 19 16 9 20 30 33 31 42 34 33 34 38 44 55 52
27 26 36 41 45 37 32 66 68 51 10 6 10 8 13 11 9 14 19 43 24 19 47 21 8 5 5 7 8 12 9 10 6 6 25 26 23 22 23 20 12 14 24 29 37 39 40 38 33 31 37 44 54 45
29 31 28 39 42 41 32 74 33 16 13 9 11 27 18 7 9 17 16 18 21 36 7 9 10 12 7 6 8 7 8 7 22 22 15 11 7 7 11 11 14 21 27 33 39 44 37 35 28 29 36 46 50 38
39 31 26 40 42 47 47 34 22 15 8 13 11 16 33 12 13 16 13 27 23 16 19 7 3 5 7 9 7 3 8 19 9 15 14 16 5 5 9 18 22 29 32 37 34 46 32 26 26 29 35 45 43 34
40 40 37 49 54 41 13 18 10 11 10 9 12 10 26 15 12 20 20 22 22 27 27 13 4 7 8 7 18 20 17 15 18 11 6 11 18 18 23 26 27 23 18 26 45 34 18 20 27 27 37 40 34 27
43 41 32 54 61 16 8 5 20 5 6 10 10 17 15 12 20 16 26 29 38 26 11 10 11 14 6 21 16 19 22 15 10 5 7 11 11 16 15 13 20 29 36 40 25 14 17 29 26 29 35 32 26 25
40 39 40 65 40 11 6 12 10 11 12 11 18 20 6 12 17 25 23 29 19 15 14 21 31 23 14 13 2 4 3 4 7 11 15 24 30 34 35 32 28 27 24 32 23 22 24 22 23 25 28 23 24 22
38 49 58 48 22 10 9 18 10 20 17 17 25 21 8 12 9 21 15 26 12 18 21 23 31 31 28 20 19 18 16 16 7 12 15 16 18 22 29 29 29 28 31 25 17 23 16 15 14 21 15 18 25 20
41 62 37 11 7 8 7 21 9 16 7 24 27 10 8 13 22 28 10 14 16 22 26 28 33 24 25 23 21 17 18 15 19 22 20 21 25 28 30 31 31 11 15 14 11 16 12 11 8 14 11 17 23 22
47 11 10 12 11 8 13 12 13 11 12 12 10 7 11 17 39 18 8 12 13 17 26 30 29 31 30 27 24 26 28 36 34 30 35 34 30 31 27 11 9 14 11 12 15 12 16 9 18 16 13 18 30 38
13 9 11 6 10 9 7 7 8 8 7 10 12 8 9 22 7 7 7 6 26 29 35 35 33 32 33 34 35 36 34 41 35 34 38 30 23 20 17 21 17 20 15 14 18 24 23 16 23 18 12 18 21 19
3 12 14 15 13 9 9 6 10 10 7 7 9 10 10 5 5 4 5 19 25 22 17 12 16 29 33 17 6 13 20 22 36 36 35 30 19 26 32 23 14 4 1 4 13 24 25 18 17 19 26 28 25 20
6 7 10 14 13 15 10 13 17 5 4 5 5 3 6 5 4 6 15 25 20 13 10 10 16 14 15 15 10 4 9 16 26 23 19 13 16 12 9 10 5 4 11 15 27 22 17 19 24 21 26 43 40 42
3 9 8 15 8 13 7 7 5 3 3 10 11 5 9 4 5 6 10 15 20 17 12 11 5 14 14 6 14 19 18 17 11 7 6 6 16 13 6 2 8 5 25 31 25 19 21 21 28 25 41 43 40 35
6 8 19 16 12 9 8 2 6 11 10 8 5 6 6 8 12 17 13 13 15 19 16 12 10 12 11 13 12 16 28 14 14 14 11 5 3 6 9 3 9 16 28 38 32 25 21 25 27 23 25 28 28 27
11 8 10 12 7 7 11 13 22 20 23 23 16 20 20 18 11 9 11 10 11 18 17 10 14 9 15 16 16 20 11 14 22 11 9 8 2 16 5 20 26 37 37 41 38 37 31 26 26 24 26 28 32 33
7 10 10 9 8 18 22 23 21 17 16 15 16 17 11 9 14 21 24 28 30 30 30 30 24 22 13 14 25 14 20 16 19 20 15 14 18 9 23 31 36 30 26 38 43 36 34 33 33 35 36 34 33 33
6 6 8 5 6 8 8 7 8 10 11 9 6 4 4 4 7 7 7 11 13 17 28 36 39 40 34 30 19 17 12 6 16 17 20 13 7 10 9 23 33 30 28 47 44 35 32 33 35 34 37 38 36 31
9 13 16 10 6 6 9 10 6 6 5 4 2 3 4 2 3 4 3 3 6 12 15 18 26 37 40 37 29 25 19 16 8 13 14 10 2 7 6 22 40 34 30 36 39 35 37 37 31 30 33 35 37 35
Wind_Direction_500mb
249 252 251 239 247 249 250 250 252 251 251 254 262 264 276 281 304 307 265 7 11 292 274 249 206 217 274 35 134 286 54 11 43 72 116 276 98 266 64 271 159 192 139 243 42 277 298 9 2 122 249 300 306 316
244 242 251 238 242 251 246 246 244 244 245 243 246 248 252 255 280 270 257 303 312 290 268 248 242 232 243 254 227 150 123 218 161 93 66 112 335 8 158 262 340 344 175 205 177 222 237 331 298 302 317 315 319 318
250 243 241 245 245 247 245 239 239 241 242 237 237 237 239 243 245 262 259 292 316 296 292 285 256 239 245 242 234 211 205 190 162 124 157 174 250 127 181 243 204 283 160 166 43 258 291 322 304 321 333 329 323 320
244 245 243 239 244 242 242 244 238 237 233 234 232 228 231 233 238 255 257 283 308 304 290 302 334 194 215 223 239 249 200 153 147 150 142 150 189 196 208 231 185 207 142 196 253 276 296 287 308 324 327 332 324 315
247 242 244 245 241 244 238 244 232 225 225 225 224 220 220 227 234 246 263 229 219 261 271 285 254 235 228 236 245 206 207 206 172 171 170 226 234 177 271 86 253 194 191 161 231 254 252 288 312 315 326 328 319 326
248 244 239 243 239 234 233 237 246 223 215 214 214 214 217 225 210 208 178 204 191 178 286 310 285 241 204 212 211 209 219 177 181 195 226 240 238 257 177 233 249 214 229 239 248 290 295 305 321 316 328 328 329 333
246 245 241 236 240 233 227 232 242 217 213 212 211 209 208 215 206 192 193 177 188 226 280 308 300 214 204 195 192 205 210 212 219 227 229 234 240 272 188 230 263 235 221 237 288 293 292 312 302 323 333 336 334 332
242 240 240 232 240 234 226 227 233 219 204 210 203 204 210 206 209 217 219 204 188 253 239 240 273 194 191 186 206 203 203 214 232 223 239 220 231 200 249 238 200 222 227 250 276 293 307 328 306 323 326 337 334 334
238 237 237 236 232 232 228 221 231 241 212 204 200 199 199 195 195 205 212 217 211 221 235 223 208 236 179 206 207 196 205 171 219 198 227 170 221 220 230 223 217 223 227 269 290 305 325 319 305 314 328 339 331 334
238 234 236 235 233 229 235 214 223 232 205 196 185 167 173 169 177 173 175 184 200 208 224 238 226 254 195 191 206 191 187 208 192 237 172 179 237 241 244 261 268 225 237 274 318 340 343 325 318 328 333 335 336 335
240 234 232 236 213 221 224 210 211 204 198 178 158 148 150 153 151 162 157 187 187 233 215 223 217 208 205 154 206 206 188 184 35 269 142 282 297 239 244 222 188 202 226 315 351 343 338 335 322 322 329 336 337 337
243 239 225 219 209 218 210 196 208 209 189 183 166 138 133 154 142 151 178 196 211 224 201 193 213 207 207 172 142 186 164 82 232 292 79 283 255 198 159 172 166 170 273 337 339 340 332 331 320 315 325 334 336 338
244 242 220 204 211 218 210 201 200 204 188 146 136 148 153 161 157 182 178 197 218 204 187 177 148 162 167 175 148 119 155 230 302 44 229 230 158 158 159 147 126 152 327 335 326 321 326 328 310 315 326 332 336 337
237 235 212 199 208 206 206 194 200 192 164 159 153 168 197 182 211 188 193 181 207 208 179 174 152 150 136 118 151 144 223 120 220 165 234 237 185 176 187 187 209 303 331 324 319 313 321 320 310 311 323 332 336 340
220 220 209 199 201 198 188 193 199 190 176 184 169 177 201 214 218 232 207 222 195 226 176 156 104 108 121 135 185 179 185 227 196 221 221 171 167 173 184 200 220 269 301 317 326 321 324 319 300 311 326 333 339 341
214 211 213 195 192 189 182 185 190 192 201 214 215 191 193 167 244 228 217 228 227 166 145 125 83 35 214 188 174 206 184 213 241 200 160 168 185 201 225 231 224 278 303 309 332 324 324 315 309 316 329 333 338 341
200 209 204 185 178 177 189 182 169 172 196 217 234 216 198 188 197 209 210 243 200 165 110 125 159 191 196 201 204 187 191 198 160 165 179 215 211 261 200 224 266 287 296 301 313 318 317 304 302 314 324 336 338 340
207 184 159 175 170 174 174 178 175 187 191 211 208 210 204 132 135 145 151 163 175 123 122 140 98 244 222 177 183 94 65 157 206 201 198 185 160 296 255 259 263 291 296 300 316 327 304 285 301 316 334 333 340 344
183 175 166 174 175 169 159 170 180 184 186 187 203 200 205 200 146 163 162 168 167 155 121 113 241 240 231 136 112 128 119 106 99 124 176 230 264 281 274 256 265 297 323 314 317 310 284 303 305 324 326 335 341 344
186 182 171 180 179 158 136 144 182 190 191 196 181 174 174 184 190 170 168 159 153 129 138 187 209 240 112 89 92 106 114 118 125 117 72 54 20 9 272 271 290 300 307 306 301 286 318 313 305 312 326 341 340 344
180 180 180 171 181 161 165 164 173 180 152 194 179 162 148 183 189 191 186 174 178 186 184 208 216 211 252 272 158 153 112 11 343 297 293 299 304 305 299 301 304 305 305 302 271 260 295 295 292 315 337 345 337 328
186 172 149 155 183 190 166 184 183 164 175 160 162 178 188 195 160 181 172 193 218 209 193 196 194 213 215 239 263 287 299 286 281 272 270 279 291 297 302 302 300 312 318 325 279 271 267 263 287 335 355 31 25 33
144 152 152 138 131 191 172 166 174 169 148 163 158 172 204 179 189 163 198 225 226 205 204 217 219 246 257 264 275 274 273 260 278 266 262 272 282 292 294 298 294 290 325 337 277 264 237 219 0 10 47 53 42 38
158 124 116 145 170 157 153 187 183 179 157 157 164 200 191 186 159 178 212 203 222 243 236 240 243 248 258 266 263 258 262 267 269 275 271 262 267 283 286 279 255 287 277 262 288 230 185 145 45 46 74 74 73 58
105 160 159 149 164 138 176 188 198 180 164 185 188 220 175 181 149 172 160 225 249 255 251 249 250 248 247 251 257 262 261 254 264 263 265 262 266 241 254 270 266 265 271 228 221 185 170 129 60 47 94 99 85 69
162 185 168 178 151 130 165 183 195 200 151 184 191 170 151 100 114 172 114 83 97 116 125 152 205 228 237 227 219 245 230 271 241 248 249 234 254 276 276 273 268 350 104 201 194 181 175 150 58 57 117 103 97 97
185 181 204 187 175 171 165 170 157 120 220 177 174 119 89 101 130 75 85 88 95 95 99 146 148 160 143 147 121 179 213 202 219 238 221 235 284 263 225 232 171 183 203 167 169 187 183 159 89 89 128 101 99 96
341 127 144 161 151 112 80 36 77 134 150 332 135 91 131 111 93 105 121 116 114 114 102 66 164 196 183 155 172 160 158 160 190 200 153 81 72 83 95 165 157 80 178 173 151 173 208 194 162 123 111 118 118 114
66 94 135 97 79 66 77 65 29 39 13 26 65 45 65 73 125 136 154 167 162 161 145 135 87 97 106 147 201 232 214 214 227 201 175 164 183 240 299 234 168 156 161 169 157 173 143 137 145 146 130 124 129 118
42 69 71 20 56 66 36 101 100 91 78 80 96 104 106 118 151 187 200 203 199 200 198 182 162 139 93 95 134 160 199 190 190 197 155 150 16 260 191 137 144 147 148 159 167 163 146 142 146 145 141 138 134 137
80 82 79 61 83 82 95 108 108 102 86 71 83 111 121 157 204 235 248 252 253 248 235 230 217 208 181 131 140 106 109 131 79 82 107 105 74 13 153 154 160 151 160 171 155 154 159 162 154 148 145 144 142 143
77 84 120 102 94 144 115 65 59 56 49 46 57 97 159 166 220 246 255 295 291 266 240 231 221 212 208 200 165 136 120 77 214 164 164 188 156 75 130 167 159 154 153 171 168 166 168 171 169 156 147 150 155 149
102 95 87 96 104 116 132 121 97 113 111 97 84 92 88 146 244 271 316 287 263 224 217 218 208 202 202 201 179 166 145 99 98 182 197 176 137 325 308 193 177 177 173 177 186 191 193 193 198 194 176 166 169 164
Wind_Speed_850mb
63 57 58 52 54 57 52 48 46 41 37 32 25 19 15 11 8 6 3 6 10 8 20 10 5 5 1 1 6 1 5 5 7 5 4 4 2 3 5 4 6 5 4 4 2 5 10 21 13 5 18 47 47 54
53 60 51 55 52 49 53 51 49 43 41 36 28 21 17 12 9 7 7 11 14 12 11 16 20 17 15 14 4 2 4 1 4 7 2 3 3 3 7 3 8 3 10 8 14 11 7 22 18 29 45 48 49 44
51 56 59 55 53 50 58 56 51 48 45 40 34 27 20 16 12 9 7 9 14 11 22 12 17 18 19 25 19 5 5 9 8 7 10 4 3 7 3 8 6 7 6 4 6 4 12 41 31 45 47 31 44 49
57 55 56 64 57 48 50 57 62 58 51 47 39 33 24 20 18 13 10 11 12 6 5 4 5 4 11 9 14 14 17 11 13 7 4 4 4 12 7 9 10 11 7 6 8 16 26 23 40 46 25 38 44 44
54 59 55 53 61 59 56 47 52 54 51 49 43 36 27 22 19 14 9 9 8 2 5 15 16 20 18 12 9 9 19 17 8 6 4 6 9 1 6 2 5 13 11 8 11 21 20 37 47 32 29 44 43 49
50 53 59 52 55 47 53 52 50 50 52 48 44 37 33 23 21 11 9 12 12 8 6 6 5 12 30 23 18 18 13 12 9 8 8 9 19 2 3 5 10 18 21 20 12 19 33 43 39 16 36 41 46 59
48 49 54 60 50 48 50 49 55 49 50 46 47 40 34 29 27 16 6 10 16 3 3 11 13 10 35 22 17 22 18 12 12 7 9 9 11 6 4 8 25 14 14 15 19 30 42 21 19 26 42 45 62 60
47 45 47 52 66 49 44 43 39 51 53 47 44 41 38 36 29 26 24 12 11 9 5 2 10 8 34 15 11 23 16 22 14 12 8 12 5 12 7 17 22 20 22 22 21 26 19 37 22 37 42 57 61 65
44 44 44 44 55 49 44 41 45 43 54 58 53 47 41 35 25 24 19 13 18 12 5 7 5 7 28 20 15 18 19 6 13 21 13 14 5 9 16 22 30 30 21 16 18 23 30 25 30 34 42 54 57 64
35 39 41 42 42 51 46 39 51 44 44 53 57 27 17 27 25 24 16 13 15 15 14 12 10 6 21 21 13 9 13 7 3 11 6 7 9 48 44 35 30 27 15 13 20 20 24 25 27 37 43 47 51 62
35 37 39 36 35 42 49 34 40 34 45 56 22 15 34 43 26 15 10 10 14 8 17 18 40 15 20 8 10 10 6 3 1 9 8 5 7 13 21 16 15 14 5 9 11 20 31 32 37 41 44 48 58 60
37 39 38 35 37 33 48 31 48 46 46 44 29 45 44 15 8 9 7 9 10 10 17 17 24 38 12 10 6 5 5 3 9 5 3 6 7 9 19 15 19 11 3 8 16 25 32 36 37 36 42 50 58 60
33 34 39 39 36 34 46 34 30 52 46 46 18 13 14 11 7 16 18 9 8 14 23 28 13 26 14 9 6 5 5 8 5 3 7 8 14 21 25 22 9 4 3 13 24 28 32 37 37 41 39 51 56 59
30 30 38 44 35 33 33 32 68 53 55 10 19 13 14 10 13 12 13 12 19 18 37 44 31 12 9 7 7 7 8 6 1 1 10 5 25 25 18 13 6 2 11 27 31 34 34 37 41 35 40 47 54 55
29 29 33 46 40 35 34 41 63 62 11 9 10 9 12 12 14 14 34 15 12 9 41 33 10 8 4 6 6 5 6 9 11 9 7 23 23 23 21 19 16 9 20 30 33 31 42 34 33 34 38 44 55 52
27 26 36 41 45 37 32 66 68 51 10 6 10 8 13 11 9 14 19 43 24 19 47 21 8 5 5 7 8 12 9 10 6 6 25 26 23 22 23 20 12 14 24 29 37 39 40 38 33 31 37 44 54 45
29 31 28 39 42 41 32 74 33 16 13 9 11 27 18 7 9 17 16 18 21 36 7 9 10 12 7 6 8 7 8 7 22 22 15 11 7 7 11 11 14 21 27 33 39 44 37 35 28 29 36 46 50 38
39 31 26 40 42 47 47 34 22 15 8 13 11 16 33 12 13 16 13 27 23 16 19 7 3 5 7 9 7 3 8 19 9 15 14 16 5 5 9 18 22 29 32 37 34 46 32 26 26 29 35 45 43 34
40 40 37 49 54 41 13 18 10 11 10 9 12 10 26 15 12 20 20 22 22 27 27 13 4 7 8 7 18 20 17 15 18 11 6 11 18 18 23 26 27 23 18 26 45 34 18 20 27 27 37 40 34 27
43 41 32 54 61 16 8 5 20 5 6 10 10 17 15 12 20 16 26 29 38 26 11 10 11 14 6 21 16 19 22 15 10 5 7 11 11 16 15 13 20 29 36 40 25 14 17 29 26 29 35 32 26 25
40 39 40 65 40 11 6 12 10 11 12 11 18 20 6 12 17 25 23 29 19 15 14 21 31 23 14 13 2 4 3 4 7 11 15 24 30 34 35 32 28 27 24 32 23 22 24 22 23 25 28 23 24 22
38 49 58 48 22 10 9 18 10 20 17 17 25 21 8 12 9 21 15 26 12 18 21 23 31 31 28 20 19 18 16 16 7 12 15 16 18 22 29 29 29 28 31 25 17 23 16 15 14 21 15 18 25 20
41 62 37 11 7 8 7 21 9 16 7 24 27 10 8 13 22 28 10 14 16 22 26 28 33 24 25 23 21 17 18 15 19 22 20 21 25 28 30 31 31 11 15 14 11 16 12 11 8 14 11 17 23 22
47 11 10 12 11 8 13 12 13 11 12 12 10 7 11 17 39 18 8 12 13 17 26 30 29 31 30 27 24 26 28 36 34 30 35 34 30 31 27 11 9 14 11 12 15 12 16 9 18 16 13 18 30 38
13 9 11 6 10 9 7 7 8 8 7 10 12 8 9 22 7 7 7 6 26 29 35 35 33 32 33 34 35 36 34 41 35 34 38 30 23 20 17 21 17 20 15 14 18 24 23 16 23 18 12 18 21 19
3 12 14 15 13 9 9 6 10 10 7 7 9 10 10 5 5 4 5 19 25 22 17 12 16 29 33 17 6 13 20 22 36 36 35 30 19 26 32 23 14 4 1 4 13 24 25 18 17 19 26 28 25 20
6 7 10 14 13 15 10 13 17 5 4 5 5 3 6 5 4 6 15 25 20 13 10 10 16 14 15 15 10 4 9 16 26 23 19 13 16 12 9 10 5 4 11 15 27 22 17 19 24 21 26 43 40 42
3 9 8 15 8 13 7 7 5 3 3 10 11 5 9 4 5 6 10 15 20 17 12 11 5 14 14 6 14 19 18 17 11 7 6 6 16 13 6 2 8 5 25 31 25 19 21 21 28 25 41 43 40 35
6 8 19 16 12 9 8 2 6 11 10 8 5 6 6 8 12 17 13 13 15 19 16 12 10 12 11 13 12 16 28 14 14 14 11 5 3 6 9 3 9 16 28 38 32 25 21 25 27 23 25 28 28 27
11 8 10 12 7 7 11 13 22 20 23 23 16 20 20 18 11 9 11 10 11 18 17 10 14 9 15 16 16 20 11 14 22 11 9 8 2 16 5 20 26 37 37 41 38 37 31 26 26 24 26 28 32 33
7 10 10 9 8 18 22 23 21 17 16 15 16 17 11 9 14 21 24 28 30 30 30 30 24 22 13 14 25 14 20 16 19 20 15 14 18 9 23 31 36 30 26 38 43 36 34 33 33 35 36 34 33 33
6 6 8 5 6 8 8 7 8 10 11 9 6 4 4 4 7 7 7 11 13 17 28 36 39 40 34 30 19 17 12 6 16 17 20 13 7 10 9 23 33 30 28 47 44 35 32 33 35 34 37 38 36 31
9 13 16 10 6 6 9 10 6 6 5 4 2 3 4 2 3 4 3 3 6 12 15 18 26 37 40 37 29 25 19 16 8 13 14 10 2 7 6 22 40 34 30 36 39 35 37 37 31 30 33 35 37 35
Wind_Direction_850mb
249 252 251 239 247 249 250 250 252 251 251 254 262 264 276 281 304 307 265 7 11 292 274 249 206 217 274 35 134 286 54 11 43 72 116 276 98 266 64 271 159 192 139 243 42 277 298 9 2 122 249 300 306 316
244 242 251 238 242 251 246 246 244 244 245 243 246 248 252 255 280 270 257 303 312 290 268 248 242 232 243 254 227 150 123 218 161 93 66 112 335 8 158 262 340 344 175 205 177 222 237 331 298 302 317 315 319 318
250 243 241 245 245 247 245 239 239 241 242 237 237 237 239 243 245 262 259 292 316 296 292 285 256 239 245 242 234 211 205 190 162 124 157 174 250 127 181 243 204 283 160 166 43 258 291 322 304 321 333 329 323 320
244 245 243 239 244 242 242 244 238 237 233 234 232 228 231 233 238 255 257 283 308 304 290 302 334 194 215 223 239 249 200 153 147 150 142 150 189 196 208 231 185 207 142 196 253 276 296 287 308 324 327 332 324 315
247 242 244 245 241 244 238 244 232 225 225 225 224 220 220 227 234 246 263 229 219 261 271 285 254 235 228 236 245 206 207 206 172 171 170 226 234 177 271 86 253 194 191 161 231 254 252 288 312 315 326 328 319 326
248 244 239 243 239 234 233 237 246 223 215 214 214 214 217 225 210 208 178 204 191 178 286 310 285 241 204 212 211 209 219 177 181 195 226 240 238 257 177 233 249 214 229 239 248 290 295 305 321 316 328 328 329 333
246 245 241 236 240 233 227 232 242 217 213 212 211 209 208 215 206 192 193 177 188 226 280 308 300 214 204 195 192 205 210 212 219 227 229 234 240 272 188 230 263 235 221 237 288 293 292 312 302 323 333 336 334 332
242 240 240 232 240 234 226 227 233 219 204 210 203 204 210 206 209 217 219 204 188 253 239 240 273 194 191 186 206 203 203 214 232 223 239 220 231 200 249 238 200 222 227 250 276 293 307 328 306 323 326 337 334 334
238 237 237 236 232 232 228 221 231 241 212 204 200 199 199 195 195 205 212 217 211 221 235 223 208 236 179 206 207 196 205 171 219 198 227 170 221 220 230 223 217 223 227 269 290 305 325 319 305 314 328 339 331 334
238 234 236 235 233 229 235 214 223 232 205 196 185 167 173 169 177 173 175 184 200 208 224 238 226 254 195 191 206 191 187 208 192 237 172 179 237 241 244 261 268 225 237 274 318 340 343 325 318 328 333 335 336 335
240 234 232 236 213 221 224 210 211 204 198 178 158 148 150 153 151 162 157 187 187 233 215 223 217 208 205 154 206 206 188 184 35 269 142 282 297 239 244 222 188 202 226 315 351 343 338 335 322 322 329 336 337 337
243 239 225 219 209 218 210 196 208 209 189 183 166 138 133 154 142 151 178 196 211 224 201 193 213 207 207 172 142 186 164 82 232 292 79 283 255 198 159 172 166 170 273 337 339 340 332 331 320 315 325 334 336 338
244 242 220 204 211 218 210 201 200 204 188 146 136 148 153 161 157 182 178 197 218 204 187 177 148 162 167 175 148 119 155 230 302 44 229 230 158 158 159 147 126 152 327 335 326 321 326 328 310 315 326 332 336 337
237 235 212 199 208 206 206 194 200 192 164 159 153 168 197 182 211 188 193 181 207 208 179 174 152 150 136 118 151 144 223 120 220 165 234 237 185 176 187 187 209 303 331 324 319 313 321 320 310 311 323 332 336 340
220 220 209 199 201 198 188 193 199 190 176 184 169 177 201 214 218 232 207 222 195 226 176 156 104 108 121 135 185 179 185 227 196 221 221 171 167 173 184 200 220 269 301 317 326 321 324 319 300 311 326 333 339 341
214 211 213 195 192 189 182 185 190 192 201 214 215 191 193 167 244 228 217 228 227 166 145 125 83 35 214 188 174 206 184 213 241 200 160 168 185 201 225 231 224 278 303 309 332 324 324 315 309 316 329 333 338 341
200 209 204 185 178 177 189 182 169 172 196 217 234 216 198 188 197 209 210 243 200 165 110 125 159 191 196 201 204 187 191 198 160 165 179 215 211 261 200 224 266 287 296 301 313 318 317 304 302 314 324 336 338 340
207 184 159 175 170 174 174 178 175 187 191 211 208 210 204 132 135 145 151 163 175 123 122 140 98 244 222 177 183 94 65 157 206 201 198 185 160 296 255 259 263 291 296 300 316 327 304 285 301 316 334 333 340 344
183 175 166 174 175 169 159 170 180 184 186 187 203 200 205 200 146 163 162 168 167 155 121 113 241 240 231 136 112 128 119 106 99 124 176 230 264 281 274 256 265 297 323 314 317 310 284 303 305 324 326 335 341 344
186 182 171 180 179 158 136 144 182 190 191 196 181 174 174 184 190 170 168 159 153 129 138 187 209 240 112 89 92 106 114 118 125 117 72 54 20 9 272 271 290 300 307 306 301 286 318 313 305 312 326 341 340 344
180 180 180 171 181 161 165 164 173 180 152 194 179 162 148 183 189 191 186 174 178 186 184 208 216 211 252 272 158 153 112 11 343 297 293 299 304 305 299 301 304 305 305 302 271 260 295 295 292 315 337 345 337 328
186 172 149 155 183 190 166 184 183 164 175 160 162 178 188 195 160 181 172 193 218 209 193 196 194 213 215 239 263 287 299 286 281 272 270 279 291 297 302 302 300 312 318 325 279 271 267 263 287 335 355 31 25 33
144 152 152 138 131 191 172 166 174 169 148 163 158 172 204 179 189 163 198 225 226 205 204 217 219 246 257 264 275 274 273 260 278 266 262 272 282 292 294 298 294 290 325 337 277 264 237 219 0 10 47 53 42 38
158 124 116 145 170 157 153 187 183 179 157 157 164 200 191 186 159 178 212 203 222 243 236 240 243 248 258 266 263 258 262 267 269 275 271 262 267 283 286 279 255 287 277 262 288 230 185 145 45 46 74 74 73 58
105 160 159 149 164 138 176 188 198 180 164 185 188 220 175 181 149 172 160 225 249 255 251 249 250 248 247 251 257 262 261 254 264 263 265 262 266 241 254 270 266 265 271 228 221 185 170 129 60 47 94 99 85 69
162 185 168 178 151 130 165 183 195 200 151 184 191 170 151 100 114 172 114 83 97 116 125 152 205 228 237 227 219 245 230 271 241 248 249 234 254 276 276 273 268 350 104 201 194 181 175 150 58 57 117 103 97 97
185 181 204 187 175 171 165 170 157 120 220 177 174 119 89 101 130 75 85 88 95 95 99 146 148 160 143 147 121 179 213 202 219 238 221 235 284 263 225 232 171 183 203 167 169 187 183 159 89 89 128 101 99 96
341 127 144 161 151 112 80 36 77 134 150 332 135 91 131 111 93 105 121 116 114 114 102 66 164 196 183 155 172 160 158 160 190 200 153 81 72 83 95 165 157 80 178 173 151 173 208 194 162 123 111 118 118 114
66 94 135 97 79 66 77 65 29 39 13 26 65 45 65 73 125 136 154 167 162 161 145 135 87 97 106 147 201 232 214 214 227 201 175 164 183 240 299 234 168 156 161 169 157 173 143 137 145 146 130 124 129 118
42 69 71 20 56 66 36 101 100 91 78 80 96 104 106 118 151 187 200 203 199 200 198 182 162 139 93 95 134 160 199 190 190 197 155 150 16 260 191 137 144 147 148 159 167 163 146 142 146 145 141 138 134 137
80 82 79 61 83 82 95 108 108 102 86 71 83 111 121 157 204 235 248 252 253 248 235 230 217 208 181 131 140 106 109 131 79 82 107 105 74 13 153 154 160 151 160 171 155 154 159 162 154 148 145 144 142 143
77 84 120 102 94 144 115 65 59 56 49 46 57 97 159 166 220 246 255 295 291 266 240 231 221 212 208 200 165 136 120 77 214 164 164 188 156 75 130 167 159 154 153 171 168 166 168 171 169 156 147 150 155 149
102 95 87 96 104 116 132 121 97 113 111 97 84 92 88 146 244 271 316 287 263 224 217 218 208 202 202 201 179 166 145 99 98 182 197 176 137 325 308 193 177 177 173 177 186 191 193 193 198 194 176 166 169 164